Showing default

HULIANWANG DIGUI-09, 62331

Orbit data source: Space-Track

HULIANWANG DIGUI-09, 62331 is a payload satellite owned by Zhongguo Xingwang (CN) in LEO that was launched on Mon, 16 Dec 2024 UTC via a CHANG ZHENG 5B/YZ-2 launch vehicle from the Wenchang Satellite Launch Center (WSC). Payload-class satellites include a variety of spacecraft equipped with specific instruments for various scientific and technological missions. These include communications satellites like Starlink; space stations such as the ISS; scientific satellites like the Hubble; Earth observation satellites from companies like Planet Labs, Umbra, and HawkEye 360; GPS; miniature CubeSats for education and research; and military/defense satellites.

Loading next visibility...
Identifier
62331, 2024-240J
Orbit
LEO
Country
Flag of CNCN / PRC
Related business
Manufacturer
CAST?
Mission
Operational Civil Communications
Bus & Motor
GUOWANG C, Unknown motor
Mass
~800 kg wet, ~800 kg dry
Launch date (UTC)
2024-12-16 (11 months ago)
Launch vehicle
CHANG ZHENG 5B/YZ-2
Launch site
Wenchang Satellite Launch Center (WSC)
Object type
Payload
Rocket body
Debris
Shape & HBR
Box + 2 Pan, 5.0 m
Radar Cross Section
5.935 m², Large (>1 m²)

Expand to show TLE details & history
Last TLE update: 2 days ago

TLE from 2 days ago
0 HULIANWANG DIGUI-09
1 62331U 24240J   25312.79837104  .00000087  00000-0  16765-3 0  9992
2 62331  86.4993  57.6056 0001967 102.5083 257.6272 13.24415827 43462
Epoch: 2025-11-08T19:09Z
TLE epoch observation values (Epoch: 2025-11-08T19:09:39.257Z)
Latitude
0.00004°
Longitude
81.96922°
Altitude
1,171.113 km
Speed
7.268 km/s
True Right ascension
03h 50m 25s
True Declination
0° 00' 00"
Sunlit
Object was in full shadow at epoch
Visualization orbit readout
Latitude
Unknown
Longitude
Unknown
Altitude
Unknown
Speed
Unknown
Apparent Right ascension
Unknown
Apparent Declination
Unknown
Sunlit
N/A
Visualization observer readout
Local Sidereal Time
03:59:02
Azimuth
Unknown
Elevation
Unknown
Doppler factor
Unknown
Orbital elements
Apogee altitude
1,166.504 km
Perigee altitude
1,163.536 km
Semi-major axis
7,543.157 km
Eccentricity
0.0002
Inclination
86.4993°
RAAN
57.6056°
Arg. of periapsis
102.5083°
True anomaly
257.60518°
Mean anomaly
257.6272°
Eccentric anomaly
257.61619°
Mean motion
3.31294 °/min
Orbital period
108.66 mins
BSTAR
0.00016765
Loading maneuver chart data...
Computing Atmospheric mass density...
Loading historical data...
Loading historical data...
Loading historical data...
Loading historical data...
Loading historical data...
Loading historical data...
Loading historical data...

Documentation

Showing up to 5 results
|